When you browse on this site, cookies collect data to enhance your experience and personalize the content and advertising you see.
Visit our Privacy Policy to learn more. By continuing to use the site, you agree to this use of cookies and data.
  • în România
  • Lista ţărilor
  • Pe 7 zile
  • Temperatura apei
  • Hartă satelitară
  • Meteo pe hartă
  • Widget-uri
  • user-avatar
    Intrare

    Meteo pe oră la Kalgoorlie

    Astăzi, 18 Februarie, Luni

    Timp Temperatura Precipitaţii Vânt Presiune Umiditate
    00:00 +21°C° 0 mm 9 m/s 729 mmHg 50%
    01:00 +20°C° 0 mm 8 m/s 729 mmHg 55%
    02:00 +18°C° 0 mm 8 m/s 729 mmHg 61%
    03:00 +17°C° 0 mm 7 m/s 729 mmHg 63%
    04:00 +17°C° 0 mm 7 m/s 729 mmHg 65%
    05:00 +16°C° 0 mm 6 m/s 729 mmHg 67%
    06:00 +17°C° 0 mm 6 m/s 730 mmHg 64%
    07:00 +19°C° 0 mm 6 m/s 730 mmHg 60%
    08:00 +19°C° 0 mm 6 m/s 731 mmHg 58%
    09:00 +21°C° 0 mm 6 m/s 730 mmHg 50%
    10:00 +25°C° 0 mm 5 m/s 730 mmHg 42%
    11:00 +27°C° 0 mm 5 m/s 730 mmHg 34%
    12:00 +28°C° 0 mm 5 m/s 729 mmHg 31%
    13:00 +30°C° 0 mm 4 m/s 729 mmHg 28%
    14:00 +29°C° 0 mm 4 m/s 729 mmHg 27%
    15:00 +30°C° 0 mm 4 m/s 729 mmHg 26%
    16:00 +30°C° 0 mm 3 m/s 729 mmHg 25%
    17:00 +31°C° 0 mm 3 m/s 729 mmHg 23%
    18:00 +30°C° 0 mm 3 m/s 729 mmHg 24%
    19:00 +30°C° 0 mm 3 m/s 729 mmHg 25%
    20:00 +29°C° 0 mm 4 m/s 729 mmHg 25%
    21:00 +28°C° 0 mm 5 m/s 729 mmHg 26%
    22:00 +28°C° 0 mm 5 m/s 730 mmHg 27%
    23:00 +27°C° 0 mm 6 m/s 730 mmHg 29%

    Mâine, 19 Februarie, Marţi

    Timp Temperatura Precipitaţii Vânt Presiune Umiditate
    00:00 +26°C° 0 mm 7 m/s 729 mmHg 32%
    01:00 +24°C° 0 mm 7 m/s 729 mmHg 36%
    02:00 +23°C° 0 mm 8 m/s 729 mmHg 40%
    03:00 +23°C° 0 mm 7 m/s 729 mmHg 44%
    04:00 +22°C° 0 mm 7 m/s 729 mmHg 48%
    05:00 +21°C° 0 mm 7 m/s 729 mmHg 52%
    06:00 +22°C° 0 mm 7 m/s 729 mmHg 51%
    07:00 +22°C° 0 mm 7 m/s 730 mmHg 49%
    08:00 +23°C° 0 mm 7 m/s 730 mmHg 48%
    09:00 +26°C° 0 mm 6 m/s 730 mmHg 42%
    10:00 +29°C° 0 mm 6 m/s 730 mmHg 35%
    11:00 +32°C° 0 mm 6 m/s 730 mmHg 29%
    12:00 +33°C° 0 mm 5 m/s 730 mmHg 26%
    13:00 +34°C° 0 mm 5 m/s 729 mmHg 24%
    14:00 +35°C° 0 mm 4 m/s 729 mmHg 22%
    15:00 +36°C° 0 mm 4 m/s 728 mmHg 22%
    16:00 +36°C° 0 mm 4 m/s 728 mmHg 21%
    17:00 +36°C° 0 mm 3 m/s 728 mmHg 21%
    18:00 +35°C° 0 mm 4 m/s 728 mmHg 22%
    19:00 +34°C° 0 mm 5 m/s 728 mmHg 22%
    20:00 +34°C° 0 mm 6 m/s 728 mmHg 23%
    21:00 +33°C° 0 mm 7 m/s 728 mmHg 23%
    22:00 +32°C° 0 mm 9 m/s 728 mmHg 23%
    23:00 +31°C° 0 mm 10 m/s 728 mmHg 22%

    Poimâine, 20 Februarie, Miercuri

    Timp Temperatura Precipitaţii Vânt Presiune Umiditate
    00:00 +29°C° 0 mm 9 m/s 728 mmHg 23%
    01:00 +28°C° 0 mm 9 m/s 728 mmHg 23%
    02:00 +27°C° 0 mm 8 m/s 728 mmHg 23%
    03:00 +26°C° 0.2 mm 7 m/s 729 mmHg 27%
    04:00 +26°C° 0.2 mm 7 m/s 729 mmHg 32%
    05:00 +24°C° 0.2 mm 6 m/s 729 mmHg 36%
    06:00 +24°C° 0.2 mm 7 m/s 729 mmHg 36%
    07:00 +26°C° 0.2 mm 7 m/s 729 mmHg 36%
    08:00 +27°C° 0.2 mm 8 m/s 730 mmHg 36%
    09:00 +28°C° 0.5 mm 8 m/s 730 mmHg 34%
    10:00 +31°C° 0.5 mm 9 m/s 730 mmHg 31%
    11:00 +33°C° 0.5 mm 9 m/s 730 mmHg 29%
    12:00 +34°C° 0.2 mm 9 m/s 729 mmHg 27%
    13:00 +35°C° 0.2 mm 9 m/s 728 mmHg 26%
    14:00 +37°C° 0.2 mm 9 m/s 728 mmHg 24%
    15:00 +38°C° 0.1 mm 9 m/s 727 mmHg 23%
    16:00 +38°C° 0.1 mm 9 m/s 727 mmHg 23%
    17:00 +38°C° 0.1 mm 9 m/s 726 mmHg 22%
    18:00 +37°C° 0 mm 9 m/s 726 mmHg 23%
    19:00 +35°C° 0 mm 9 m/s 726 mmHg 23%
    20:00 +34°C° 0 mm 10 m/s 726 mmHg 24%
    21:00 +34°C° 0 mm 9 m/s 726 mmHg 24%
    22:00 +33°C° 0 mm 9 m/s 727 mmHg 24%
    23:00 +32°C° 0 mm 8 m/s 727 mmHg 24%

    21 Februarie, Joi

    Timp Temperatura Precipitaţii Vânt Presiune Umiditate
    00:00 +32°C° 0 mm 7 m/s 727 mmHg 24%
    01:00 +30°C° 0 mm 6 m/s 726 mmHg 24%
    02:00 +29°C° 0 mm 6 m/s 726 mmHg 24%
    03:00 +29°C° 0 mm 5 m/s 726 mmHg 24%
    04:00 +28°C° 0 mm 5 m/s 726 mmHg 24%
    05:00 +27°C° 0 mm 5 m/s 726 mmHg 24%
    06:00 +29°C° 0 mm 6 m/s 727 mmHg 23%
    07:00 +30°C° 0 mm 7 m/s 727 mmHg 21%
    08:00 +32°C° 0 mm 8 m/s 728 mmHg 19%
    09:00 +35°C° 0 mm 8 m/s 728 mmHg 18%
    10:00 +38°C° 0 mm 7 m/s 728 mmHg 16%
    11:00 +40°C° 0 mm 7 m/s 728 mmHg 14%
    12:00 +41°C° 0 mm 7 m/s 727 mmHg 12%
    13:00 +42°C° 0 mm 6 m/s 727 mmHg 10%
    14:00 +44°C° 0 mm 6 m/s 726 mmHg 8%
    15:00 +44°C° 0 mm 6 m/s 726 mmHg 8%
    16:00 +44°C° 0 mm 6 m/s 725 mmHg 8%
    17:00 +44°C° 0 mm 6 m/s 725 mmHg 8%
    18:00 +41°C° 0 mm 5 m/s 726 mmHg 9%
    19:00 +38°C° 0 mm 4 m/s 726 mmHg 10%
    20:00 +37°C° 0 mm 3 m/s 726 mmHg 12%
    21:00 +35°C° 0 mm 3 m/s 727 mmHg 13%
    22:00 +34°C° 0 mm 4 m/s 727 mmHg 15%
    23:00 +33°C° 0 mm 4 m/s 727 mmHg 17%

    22 Februarie, Vineri

    Timp Temperatura Precipitaţii Vânt Presiune Umiditate
    00:00 +32°C° 0 mm 4 m/s 727 mmHg 25%
    01:00 +29°C° 0 mm 5 m/s 727 mmHg 33%
    02:00 +27°C° 0 mm 5 m/s 726 mmHg 41%
    03:00 +27°C° 0 mm 5 m/s 726 mmHg 46%
    04:00 +26°C° 0 mm 4 m/s 726 mmHg 51%
    05:00 +25°C° 0 mm 4 m/s 727 mmHg 56%
    06:00 +26°C° 0 mm 3 m/s 727 mmHg 50%
    07:00 +28°C° 0 mm 3 m/s 727 mmHg 44%
    08:00 +29°C° 0 mm 3 m/s 728 mmHg 37%
    09:00 +33°C° 0 mm 3 m/s 728 mmHg 29%
    10:00 +37°C° 0 mm 3 m/s 728 mmHg 21%
    11:00 +40°C° 0 mm 3 m/s 728 mmHg 12%
    12:00 +42°C° 0 mm 4 m/s 727 mmHg 11%
    13:00 +43°C° 0 mm 5 m/s 727 mmHg 10%
    14:00 +45°C° 0 mm 6 m/s 726 mmHg 8%
    15:00 +45°C° 0 mm 7 m/s 726 mmHg 8%
    16:00 +45°C° 0 mm 7 m/s 726 mmHg 8%
    17:00 +45°C° 0 mm 8 m/s 726 mmHg 9%
    18:00 +44°C° 0 mm 7 m/s 726 mmHg 10%
    19:00 +41°C° 0 mm 6 m/s 727 mmHg 11%
    20:00 +40°C° 0 mm 5 m/s 727 mmHg 12%
    21:00 +38°C° 0 mm 4 m/s 727 mmHg 12%
    22:00 +37°C° 0 mm 3 m/s 727 mmHg 12%
    23:00 +36°C° 0 mm 3 m/s 727 mmHg 13%

    23 Februarie, Sâmbătă

    Timp Temperatura Precipitaţii Vânt Presiune Umiditate
    00:00 +35°C° 0 mm 3 m/s 727 mmHg 14%
    01:00 +34°C° 0 mm 3 m/s 727 mmHg 14%
    02:00 +33°C° 0 mm 3 m/s 726 mmHg 15%
    03:00 +33°C° 0 mm 3 m/s 727 mmHg 16%
    04:00 +31°C° 0 mm 3 m/s 727 mmHg 17%
    05:00 +30°C° 0 mm 3 m/s 727 mmHg 17%
    06:00 +31°C° 0 mm 3 m/s 728 mmHg 17%
    07:00 +33°C° 0 mm 3 m/s 728 mmHg 18%
    08:00 +34°C° 0 mm 4 m/s 729 mmHg 18%
    09:00 +36°C° 0 mm 3 m/s 729 mmHg 16%
    10:00 +38°C° 0 mm 3 m/s 729 mmHg 15%
    11:00 +40°C° 0 mm 2 m/s 729 mmHg 13%
    12:00 +41°C° 0 mm 2 m/s 728 mmHg 12%
    13:00 +43°C° 0 mm 3 m/s 728 mmHg 11%
    14:00 +44°C° 0 mm 3 m/s 727 mmHg 10%
    15:00 +43°C° 0 mm 4 m/s 727 mmHg 11%
    16:00 +44°C° 0 mm 6 m/s 727 mmHg 11%
    17:00 +43°C° 0 mm 7 m/s 727 mmHg 11%
    18:00 +41°C° 0 mm 6 m/s 728 mmHg 12%
    19:00 +40°C° 0 mm 5 m/s 728 mmHg 13%
    20:00 +37°C° 0 mm 3 m/s 728 mmHg 14%
    21:00 +37°C° 0 mm 3 m/s 729 mmHg 14%
    22:00 +36°C° 0 mm 3 m/s 729 mmHg 15%
    23:00 +35°C° 0 mm 3 m/s 729 mmHg 16%
    Arată mai mult